This is the latest recevied weather packets stored in our database for station/object DG2HSI-10. If no packets are shown the sender has not sent any weather packets the latest 10 day(s).
| Time | Temp. | Humidity | Pressure | Rain* | Wind** | Luminosity | Snow |
|---|---|---|---|---|---|---|---|
| 1777604137 | 7.78° C | 60% | 1030.6 hPa | - | - | - | - |
| 1777602937 | 7.22° C | 60% | 1030.8 hPa | - | - | - | - |
| 1777601737 | 7.78° C | 58% | 1030.6 hPa | - | - | - | - |
| 1777600537 | 7.78° C | 58% | 1030.6 hPa | - | - | - | - |
| 1777599337 | 8.33° C | 56% | 1030.6 hPa | - | - | - | - |
| 1777598137 | 8.89° C | 56% | 1030.6 hPa | - | - | - | - |
| 1777596937 | 8.33° C | 57% | 1030.7 hPa | - | - | - | - |
| 1777595736 | 8.89° C | 55% | 1030.7 hPa | - | - | - | - |
| 1777594536 | 10° C | 53% | 1030.7 hPa | - | - | - | - |
| 1777593336 | 9.44° C | 53% | 1030.6 hPa | - | - | - | - |
| 1777592136 | 10° C | 52% | 1030.5 hPa | - | - | - | - |
| 1777590936 | 9.44° C | 53% | 1030.7 hPa | - | - | - | - |
| 1777589736 | 10° C | 52% | 1030.6 hPa | - | - | - | - |
| 1777588535 | 10° C | 53% | 1030.8 hPa | - | - | - | - |
| 1777587335 | 10° C | 52% | 1030.8 hPa | - | - | - | - |
| 1777586135 | 10° C | 52% | 1030.7 hPa | - | - | - | - |
| 1777584935 | 10.56° C | 51% | 1030.7 hPa | - | - | - | - |
| 1777583735 | 10.56° C | 50% | 1030.7 hPa | - | - | - | - |
| 1777582535 | 11.11° C | 50% | 1030.7 hPa | - | - | - | - |
| 1777581334 | 11.67° C | 49% | 1030.8 hPa | - | - | - | - |
| 1777580134 | 11.67° C | 49% | 1030.5 hPa | - | - | - | - |
| 1777578934 | 12.22° C | 48% | 1030.6 hPa | - | - | - | - |
| 1777577734 | 12.78° C | 47% | 1030.6 hPa | - | - | - | - |
| 1777576534 | 13.33° C | 45% | 1030.5 hPa | - | - | - | - |
| 1777575334 | 13.89° C | 44% | 1030.4 hPa | - | - | - | - |
* Rain since midnight (hover to see other rain measurements)
** Current wind speed in m/s (hover to see current wind gust speed)